| time (UTC) | temp F | wind direction | speed knots | gust knots | rain 1hr in | rain 24hr in | rain mn in | humidity % | barometer mb |
| 20260507141532 | 55 | 293 | 0.9 | 5.2 | 0.00 | 0.00 | 0.00 | 53 | 1006.0 |
| 20260507140029 | 55 | 300 | 0.9 | 4.3 | 0.00 | 0.00 | 0.00 | 53 | 1006.0 |
| 20260507134527 | 55 | 280 | 0.9 | 5.2 | 0.00 | 0.00 | 0.00 | 54 | 1005.8 |
| 20260507133028 | 54 | 39 | 0.9 | 2.6 | 0.00 | 0.00 | 0.00 | 56 | 1005.7 |
| 20260507131525 | 53 | 302 | 0.9 | 4.3 | 0.00 | 0.00 | 0.00 | 58 | 1005.8 |
| 20260507130022 | 52 | 355 | 0.9 | 3.5 | 0.00 | 0.00 | 0.00 | 60 | 1005.6 |
| 20260507124530 | 50 | 41 | 0.0 | 1.7 | 0.00 | 0.00 | 0.00 | 63 | 1005.3 |
| 20260507123023 | 50 | 297 | 0.0 | 0.9 | 0.00 | 0.00 | 0.00 | 65 | 1005.2 |
| 20260507121520 | 50 | 219 | 0.0 | 0.9 | 0.00 | 0.00 | 0.00 | 66 | 1005.1 |
| 20260507120019 | 50 | 269 | 0.0 | 0.9 | 0.00 | 0.00 | 0.00 | 65 | 1005.0 |
| 20260507114515 | 51 | 217 | 0.0 | 1.7 | 0.00 | 0.00 | 0.00 | 65 | 1005.0 |
| 20260507113034 | 52 | 229 | 0.0 | 1.7 | 0.00 | 0.00 | 0.00 | 65 | 1004.8 |
| 20260507111616 | 52 | 209 | 0.0 | 0.9 | 0.00 | 0.00 | 0.00 | 66 | 1004.7 |
| 20260507110015 | 52 | 208 | 0.0 | 0.9 | 0.00 | 0.00 | 0.00 | 67 | 1004.7 |
| 20260507104513 | 52 | 209 | 0.0 | 0.9 | 0.00 | 0.00 | 0.00 | 67 | 1004.7 |
| 20260507103012 | 52 | 208 | 0.0 | 0.9 | 0.00 | 0.00 | 0.00 | 66 | 1004.6 |
| 20260507101515 | 53 | 209 | 0.0 | 1.7 | 0.00 | 0.00 | 0.00 | 65 | 1004.6 |
| 20260507100007 | 53 | 209 | 0.0 | 0.9 | 0.00 | 0.00 | 0.00 | 65 | 1004.5 |
| 20260507094506 | 53 | 210 | 0.0 | 0.9 | 0.00 | 0.00 | 0.00 | 65 | 1004.5 |
| 20260507093005 | 53 | 224 | 0.0 | 0.9 | 0.00 | 0.00 | 0.00 | 64 | 1004.6 |
| 20260507091506 | 54 | 219 | 0.0 | 1.7 | 0.00 | 0.00 | 0.00 | 63 | 1004.4 |
| 20260507090005 | 53 | 219 | 0.0 | 0.9 | 0.00 | 0.00 | 0.00 | 64 | 1004.5 |
| 20260507084506 | 53 | 219 | 0.0 | 0.0 | 0.00 | 0.00 | 0.00 | 65 | 1004.5 |
| 20260507083003 | 53 | 219 | 0.0 | 0.9 | 0.00 | 0.00 | 0.00 | 65 | 1004.4 |
| 20260507081506 | 53 | 219 | 0.0 | 0.9 | 0.00 | 0.00 | 0.00 | 66 | 1004.5 |
| 20260507080105 | 53 | 219 | 0.0 | 0.9 | 0.00 | 0.00 | 0.00 | 66 | 1004.5 |
| 20260507074603 | 54 | 220 | 0.0 | 0.9 | 0.00 | 0.00 | 0.00 | 66 | 1004.7 |
| 20260507073100 | 54 | 220 | 0.0 | 0.9 | 0.00 | 0.00 | 0.00 | 65 | 1004.9 |
| 20260507071555 | 54 | 219 | 0.0 | 0.9 | 0.00 | 0.00 | 0.00 | 65 | 1004.8 |
| 20260507070054 | 55 | 219 | 0.0 | 0.9 | 0.00 | 0.00 | 0.00 | 64 | 1004.9 |
| 20260507064553 | 55 | 289 | 0.0 | 0.9 | 0.00 | 0.00 | 0.00 | 62 | 1005.0 |
| 20260507063049 | 56 | 302 | 0.0 | 0.0 | 0.00 | 0.00 | 0.00 | 60 | 1004.9 |
| 20260507061547 | 56 | 302 | 0.0 | 2.6 | 0.00 | 0.00 | 0.00 | 59 | 1005.1 |
| 20260507060045 | 56 | 275 | 0.0 | 0.9 | 0.00 | 0.00 | 0.00 | 60 | 1005.3 |
| 20260507054543 | 56 | 302 | 0.0 | 0.9 | 0.00 | 0.00 | 0.00 | 60 | 1005.2 |
| 20260507053043 | 56 | 319 | 0.0 | 1.7 | 0.00 | 0.00 | 0.00 | 60 | 1005.0 |
| 20260507051543 | 56 | 284 | 0.0 | 1.7 | 0.00 | 0.00 | 0.00 | 60 | 1005.5 |
| 20260507050043 | 56 | 200 | 0.0 | 0.9 | 0.00 | 0.00 | 0.00 | 61 | 1005.1 |
| 20260507044548 | 56 | 196 | 0.0 | 0.0 | 0.00 | 0.00 | 0.00 | 61 | 1005.0 |
| 20260507043055 | 56 | 197 | 0.0 | 0.0 | 0.00 | 0.00 | 0.00 | 60 | 1004.9 |
| 20260507041540 | 57 | 185 | 0.0 | 0.0 | 0.00 | 0.00 | 0.00 | 58 | 1004.8 |
| 20260507040041 | 58 | 184 | 0.0 | 0.0 | 0.00 | 0.00 | 0.00 | 58 | 1004.8 |
| 20260507034541 | 58 | 150 | 0.0 | 1.7 | 0.00 | 0.00 | 0.00 | 56 | 1004.5 |
| 20260507033039 | 60 | 130 | 0.0 | 0.9 | 0.00 | 0.00 | 0.00 | 52 | 1004.3 |
| 20260507031542 | 61 | 130 | 0.0 | 2.6 | 0.00 | 0.00 | 0.00 | 46 | 1004.0 |
| 20260507030036 | 62 | 139 | 0.0 | 0.9 | 0.00 | 0.00 | 0.00 | 42 | 1004.9 |
| 20260507024536 | 62 | 185 | 0.0 | 1.7 | 0.00 | 0.00 | 0.00 | 41 | 1004.7 |
| 20260507023035 | 62 | 52 | 0.9 | 4.3 | 0.00 | 0.00 | 0.00 | 37 | 1004.7 |
| 20260507021538 | 63 | 165 | 0.0 | 1.7 | 0.00 | 0.00 | 0.00 | 33 | 1005.2 |
| 20260507020046 | 64 | 182 | 0.0 | 0.0 | 0.00 | 0.00 | 0.00 | 32 | 1004.7 |
| 20260507014535 | 64 | 182 | 0.0 | 2.6 | 0.00 | 0.00 | 0.00 | 30 | 1004.3 |
| 20260507013033 | 65 | 39 | 0.0 | 0.9 | 0.00 | 0.00 | 0.00 | 30 | 1003.8 |
| 20260507011543 | 66 | 336 | 0.0 | 0.9 | 0.00 | 0.00 | 0.00 | 29 | 1003.7 |
| 20260507010036 | 66 | 20 | 0.0 | 0.9 | 0.00 | 0.00 | 0.00 | 28 | 1003.9 |
| 20260507004532 | 67 | 211 | 0.0 | 0.9 | 0.00 | 0.00 | 0.00 | 28 | 1003.8 |
| 20260507003031 | 68 | 40 | 0.0 | 1.7 | 0.00 | 0.00 | 0.00 | 28 | 1003.7 |
| 20260507001602 | 68 | 68 | 0.0 | 1.7 | 0.00 | 0.00 | 0.00 | 27 | 1003.7 |
| 20260507000035 | 68 | 41 | 0.9 | 3.5 | 0.00 | 0.00 | 0.00 | 27 | 1003.8 |
| 20260506234528 | 67 | 37 | 0.9 | 2.6 | 0.00 | 0.00 | 0.00 | 27 | 1003.6 |
| 20260506233028 | 67 | 38 | 0.9 | 4.3 | 0.00 | 0.00 | 0.00 | 27 | 1003.7 |
| 20260506231527 | 68 | 15 | 0.9 | 3.5 | 0.00 | 0.00 | 0.00 | 26 | 1003.6 |
| 20260506230035 | 68 | 37 | 0.9 | 4.3 | 0.00 | 0.00 | 0.00 | 27 | 1003.8 |
| 20260506224523 | 68 | 41 | 0.0 | 3.5 | 0.00 | 0.00 | 0.00 | 27 | 1003.9 |
| 20260506223028 | 68 | 24 | 0.9 | 3.5 | 0.00 | 0.00 | 0.00 | 26 | 1004.2 |
| 20260506221520 | 67 | 32 | 1.7 | 6.1 | 0.00 | 0.00 | 0.00 | 26 | 1004.3 |
| 20260506220017 | 68 | 17 | 0.9 | 3.5 | 0.00 | 0.00 | 0.00 | 26 | 1004.6 |
| 20260506214514 | 68 | 200 | 0.0 | 4.3 | 0.00 | 0.00 | 0.00 | 28 | 1004.7 |
| 20260506213012 | 69 | 37 | 0.0 | 3.5 | 0.00 | 0.00 | 0.00 | 26 | 1005.1 |
| 20260506211509 | 69 | 129 | 0.9 | 4.3 | 0.00 | 0.00 | 0.00 | 26 | 1005.3 |
| 20260506210009 | 68 | 210 | 0.9 | 6.1 | 0.00 | 0.00 | 0.00 | 27 | 1005.5 |
| 20260506204505 | 68 | 41 | 0.0 | 4.3 | 0.00 | 0.00 | 0.00 | 26 | 1005.4 |
| 20260506203002 | 67 | 31 | 1.7 | 4.3 | 0.00 | 0.00 | 0.00 | 27 | 1005.5 |
| 20260506201559 | 66 | 317 | 0.0 | 6.1 | 0.00 | 0.00 | 0.00 | 27 | 1005.8 |
| 20260506200101 | 66 | 35 | 0.9 | 5.2 | 0.00 | 0.00 | 0.00 | 27 | 1005.9 |
| 20260506194555 | 66 | 37 | 1.7 | 4.3 | 0.00 | 0.00 | 0.00 | 28 | 1006.1 |
| 20260506193056 | 64 | 217 | 0.0 | 4.3 | 0.00 | 0.00 | 0.00 | 28 | 1006.3 |
| 20260506191547 | 63 | 196 | 0.9 | 4.3 | 0.00 | 0.00 | 0.00 | 30 | 1006.5 |
| 20260506190050 | 62 | 134 | 1.7 | 6.1 | 0.00 | 0.00 | 0.00 | 30 | 1006.8 |
| 20260506184547 | 62 | 224 | 0.9 | 6.1 | 0.00 | 0.00 | 0.00 | 31 | 1006.9 |
| 20260506183044 | 62 | 186 | 0.9 | 5.2 | 0.00 | 0.00 | 0.00 | 32 | 1007.2 |
| 20260506181542 | 61 | 146 | 0.9 | 7.8 | 0.00 | 0.00 | 0.00 | 32 | 1007.3 |
| 20260506180036 | 61 | 215 | 0.9 | 6.1 | 0.00 | 0.00 | 0.00 | 32 | 1007.4 |
| 20260506174536 | 60 | 195 | 0.9 | 7.0 | 0.00 | 0.00 | 0.00 | 32 | 1007.6 |
| 20260506173028 | 58 | 275 | 0.0 | 7.0 | 0.00 | 0.00 | 0.00 | 35 | 1008.0 |
| 20260506171532 | 57 | 105 | 0.9 | 4.3 | 0.00 | 0.00 | 0.00 | 35 | 1008.3 |
| 20260506170029 | 57 | 139 | 1.7 | 5.2 | 0.00 | 0.00 | 0.00 | 36 | 1008.5 |
| 20260506164541 | 57 | 142 | 0.0 | 3.5 | 0.00 | 0.00 | 0.00 | 37 | 1008.6 |
| 20260506163019 | 56 | 193 | 0.9 | 3.5 | 0.00 | 0.00 | 0.00 | 37 | 1008.7 |
| 20260506161514 | 54 | 179 | 0.9 | 5.2 | 0.00 | 0.00 | 0.00 | 38 | 1008.9 |
| 20260506160011 | 54 | 190 | 0.9 | 5.2 | 0.00 | 0.00 | 0.00 | 39 | 1009.2 |
| 20260506154506 | 52 | 176 | 0.0 | 7.0 | 0.00 | 0.00 | 0.00 | 41 | 1009.5 |
| 20260506153003 | 51 | 207 | 0.9 | 3.5 | 0.00 | 0.00 | 0.00 | 42 | 1009.6 |
| 20260506151604 | 49 | 209 | 0.0 | 4.3 | 0.00 | 0.00 | 0.00 | 43 | 1009.8 |
| 20260506150104 | 48 | 199 | 0.0 | 2.6 | 0.00 | 0.00 | 0.00 | 43 | 1010.0 |
| 20260506144551 | 46 | 128 | 0.9 | 5.2 | 0.00 | 0.00 | 0.00 | 46 | 1010.2 |
| 20260506143047 | 44 | 202 | 0.0 | 2.6 | 0.00 | 0.00 | 0.00 | 48 | 1010.3 |